Time,TemperatureF,DewpointF,PressureIn,WindDirection,WindDirectionDegrees,WindSpeedMPH,WindSpeedGustMPH,Humidity,HourlyPrecipIn,Conditions,Clouds,dailyrainin,SoftwareType,DateUTC
2013-02-20 00:00:00,20.9,13.0,30.16,West,272,22.0,39.0,71,0.00,,,0.07,Wunderground v.1.15,2013-02-20 05:00:00,
2013-02-20 00:03:00,20.9,13.0,30.16,West,279,22.0,39.0,71,0.00,,,0.00,Wunderground v.1.15,2013-02-20 05:03:00,
2013-02-20 00:06:00,20.9,13.0,30.16,WNW,286,21.0,39.0,71,0.00,,,0.00,Wunderground v.1.15,2013-02-20 05:06:00,
2013-02-20 00:07:00,20.9,13.0,30.16,West,263,21.0,39.0,71,0.00,,,0.00,Wunderground v.1.15,2013-02-20 05:07:00,
2013-02-20 00:12:00,20.8,13.5,30.16,West,274,20.0,23.0,73,0.00,,,0.00,Wunderground v.1.15,2013-02-20 05:12:00,
2013-02-20 00:17:00,20.0,13.6,30.16,West,277,21.0,39.0,76,0.00,,,0.00,Wunderground v.1.15,2013-02-20 05:17:00,
2013-02-20 00:22:00,19.5,14.3,30.16,West,281,21.0,39.0,80,0.00,,,0.00,Wunderground v.1.15,2013-02-20 05:22:00,
2013-02-20 00:27:00,19.3,13.9,30.16,West,281,20.0,39.0,79,0.00,,,0.00,Wunderground v.1.15,2013-02-20 05:27:00,
2013-02-20 00:32:00,19.3,13.6,30.17,West,280,20.0,39.0,78,0.00,,,0.00,Wunderground v.1.15,2013-02-20 05:32:00,
2013-02-20 00:37:00,19.4,13.1,30.17,West,281,20.0,39.0,76,0.00,,,0.00,Wunderground v.1.15,2013-02-20 05:37:00,
2013-02-20 00:42:00,19.5,13.2,30.17,West,277,20.0,23.0,76,0.00,,,0.00,Wunderground v.1.15,2013-02-20 05:42:00,
2013-02-20 00:47:00,19.4,12.8,30.16,WNW,289,19.0,39.0,75,0.00,,,0.00,Wunderground v.1.15,2013-02-20 05:47:00,
2013-02-20 00:52:00,19.4,12.5,30.16,WNW,296,19.0,39.0,74,0.00,,,0.00,Wunderground v.1.15,2013-02-20 05:52:00,
2013-02-20 00:57:00,19.1,12.8,30.17,WNW,284,18.0,39.0,76,0.00,,,0.00,Wunderground v.1.15,2013-02-20 05:57:00,
2013-02-20 01:02:00,19.0,13.3,30.17,WNW,296,17.0,39.0,78,0.00,,,0.00,Wunderground v.1.15,2013-02-20 06:02:00,
2013-02-20 01:07:00,18.5,13.4,30.17,West,279,18.0,39.0,80,0.00,,,0.00,Wunderground v.1.15,2013-02-20 06:07:00,
2013-02-20 01:12:00,18.4,13.3,30.17,WNW,283,18.0,39.0,80,0.00,,,0.00,Wunderground v.1.15,2013-02-20 06:12:00,
2013-02-20 01:17:00,18.2,13.1,30.17,WNW,282,18.0,39.0,80,0.00,,,0.00,Wunderground v.1.15,2013-02-20 06:17:00,
2013-02-20 01:22:00,18.2,13.1,30.18,West,277,17.0,39.0,80,0.00,,,0.00,Wunderground v.1.15,2013-02-20 06:22:00,
2013-02-20 01:27:00,18.1,13.0,30.18,WNW,293,16.0,39.0,80,0.00,,,0.00,Wunderground v.1.15,2013-02-20 06:27:00,
2013-02-20 01:32:00,18.1,13.0,30.18,WNW,292,16.0,39.0,80,0.00,,,0.00,Wunderground v.1.15,2013-02-20 06:32:00,
2013-02-20 01:37:00,18.1,13.0,30.18,WNW,283,16.0,39.0,80,0.00,,,0.00,Wunderground v.1.15,2013-02-20 06:37:00,
2013-02-20 01:42:00,18.1,12.7,30.19,WNW,286,16.0,21.0,79,0.00,,,0.00,Wunderground v.1.15,2013-02-20 06:42:00,
2013-02-20 01:47:00,18.1,12.4,30.19,WNW,290,17.0,39.0,78,0.00,,,0.00,Wunderground v.1.15,2013-02-20 06:47:00,
2013-02-20 01:53:00,18.3,12.6,30.19,West,259,17.0,39.0,78,0.00,,,0.00,Wunderground v.1.15,2013-02-20 06:53:00,
2013-02-20 01:58:00,18.2,12.5,30.19,WNW,282,16.0,39.0,78,0.00,,,0.00,Wunderground v.1.15,2013-02-20 06:58:00,
2013-02-20 02:03:00,17.9,11.9,30.20,West,279,17.0,39.0,77,0.00,,,0.00,Wunderground v.1.15,2013-02-20 07:03:00,
2013-02-20 02:08:00,17.8,11.8,30.20,West,281,19.0,39.0,77,0.00,,,0.00,Wunderground v.1.15,2013-02-20 07:08:00,
2013-02-20 02:13:00,17.8,11.8,30.20,West,281,19.0,39.0,77,0.00,,,0.00,Wunderground v.1.15,2013-02-20 07:13:00,
2013-02-20 02:19:00,17.7,12.0,30.20,West,280,18.0,39.0,78,0.00,,,0.00,Wunderground v.1.15,2013-02-20 07:19:00,
2013-02-20 02:24:00,17.7,11.7,30.20,NW,305,18.0,39.0,77,0.00,,,0.00,Wunderground v.1.15,2013-02-20 07:24:00,
2013-02-20 02:29:00,17.5,11.5,30.21,West,261,19.0,39.0,77,0.00,,,0.00,Wunderground v.1.15,2013-02-20 07:29:00,
2013-02-20 02:34:00,17.2,11.5,30.21,West,273,22.0,39.0,78,0.00,,,0.00,Wunderground v.1.15,2013-02-20 07:34:00,
2013-02-20 02:39:00,17.2,11.8,30.21,WNW,296,20.0,39.0,79,0.00,,,0.00,Wunderground v.1.15,2013-02-20 07:39:00,
2013-02-20 02:44:00,17.0,11.9,30.21,WNW,286,18.0,39.0,80,0.00,,,0.00,Wunderground v.1.15,2013-02-20 07:44:00,
2013-02-20 02:50:00,17.1,12.0,30.21,West,271,17.0,17.0,80,0.00,,,0.00,Wunderground v.1.15,2013-02-20 07:50:00,
2013-02-20 02:55:00,17.0,11.6,30.21,West,281,16.0,39.0,79,0.00,,,0.00,Wunderground v.1.15,2013-02-20 07:55:00,
2013-02-20 03:00:00,16.7,11.0,30.22,West,278,17.0,39.0,78,0.00,,,0.00,Wunderground v.1.15,2013-02-20 08:00:00,
2013-02-20 03:05:00,16.6,10.9,30.22,WNW,292,19.0,39.0,78,0.00,,,0.00,Wunderground v.1.15,2013-02-20 08:05:00,
2013-02-20 03:10:00,16.4,10.7,30.21,WNW,282,19.0,19.0,78,0.00,,,0.00,Wunderground v.1.15,2013-02-20 08:10:00,
2013-02-20 03:15:00,16.6,10.9,30.22,WNW,284,17.0,39.0,78,0.00,,,0.00,Wunderground v.1.15,2013-02-20 08:15:00,
2013-02-20 03:20:00,16.5,10.5,30.22,West,271,17.0,17.0,77,0.00,,,0.00,Wunderground v.1.15,2013-02-20 08:20:00,
2013-02-20 03:25:00,16.4,11.0,30.22,WNW,291,16.0,39.0,79,0.00,,,0.00,Wunderground v.1.15,2013-02-20 08:25:00,
2013-02-20 03:31:00,16.3,11.2,30.23,WNW,288,14.0,15.0,80,0.00,,,0.00,Wunderground v.1.15,2013-02-20 08:31:00,
2013-02-20 03:36:00,16.1,10.7,30.23,WNW,290,14.0,39.0,79,0.00,,,0.00,Wunderground v.1.15,2013-02-20 08:36:00,
2013-02-20 03:41:00,15.8,10.7,30.23,WNW,286,15.0,39.0,80,0.00,,,0.00,Wunderground v.1.15,2013-02-20 08:41:00,
2013-02-20 03:47:00,15.9,10.8,30.23,West,279,15.0,39.0,80,0.00,,,0.00,Wunderground v.1.15,2013-02-20 08:47:00,
2013-02-20 03:52:00,15.7,10.3,30.23,West,279,15.0,39.0,79,0.00,,,0.00,Wunderground v.1.15,2013-02-20 08:52:00,
2013-02-20 03:57:00,15.5,9.9,30.23,WNW,283,17.0,39.0,78,0.00,,,0.00,Wunderground v.1.15,2013-02-20 08:57:00,
2013-02-20 04:02:00,15.5,9.9,30.23,WNW,286,17.0,39.0,78,0.00,,,0.00,Wunderground v.1.15,2013-02-20 09:02:00,
2013-02-20 04:07:00,15.3,9.7,30.24,WNW,286,16.0,39.0,78,0.00,,,0.00,Wunderground v.1.15,2013-02-20 09:07:00,
2013-02-20 04:12:00,15.3,9.4,30.24,WNW,284,17.0,39.0,77,0.00,,,0.00,Wunderground v.1.15,2013-02-20 09:12:00,
2013-02-20 04:18:00,15.4,9.5,30.24,WNW,295,16.0,39.0,77,0.00,,,0.00,Wunderground v.1.15,2013-02-20 09:18:00,
2013-02-20 04:23:00,15.2,9.0,30.24,West,278,15.0,39.0,76,0.00,,,0.00,Wunderground v.1.15,2013-02-20 09:23:00,
2013-02-20 04:28:00,15.0,9.1,30.24,WNW,290,16.0,39.0,77,0.00,,,0.00,Wunderground v.1.15,2013-02-20 09:28:00,
2013-02-20 04:33:00,14.8,9.2,30.25,West,279,15.0,39.0,78,0.00,,,0.00,Wunderground v.1.15,2013-02-20 09:33:00,
2013-02-20 04:38:00,14.8,9.2,30.25,WNW,283,15.0,39.0,78,0.00,,,0.00,Wunderground v.1.15,2013-02-20 09:38:00,
2013-02-20 04:43:00,14.4,8.2,30.25,West,281,16.0,39.0,76,0.00,,,0.00,Wunderground v.1.15,2013-02-20 09:43:00,
2013-02-20 04:48:00,14.3,8.1,30.25,WNW,293,16.0,39.0,76,0.00,,,0.00,Wunderground v.1.15,2013-02-20 09:48:00,
2013-02-20 04:53:00,14.3,8.1,30.25,West,277,15.0,39.0,76,0.00,,,0.00,Wunderground v.1.15,2013-02-20 09:53:00,
2013-02-20 04:59:00,14.3,8.4,30.25,WNW,284,14.0,39.0,77,0.00,,,0.00,Wunderground v.1.15,2013-02-20 09:59:00,
2013-02-20 05:04:00,14.4,8.5,30.25,WNW,286,15.0,39.0,77,0.00,,,0.00,Wunderground v.1.15,2013-02-20 10:04:00,
2013-02-20 05:09:00,14.4,8.8,30.25,WNW,282,14.0,39.0,78,0.00,,,0.00,Wunderground v.1.15,2013-02-20 10:09:00,
2013-02-20 05:14:00,14.1,8.5,30.26,WNW,290,13.0,39.0,78,0.00,,,0.00,Wunderground v.1.15,2013-02-20 10:14:00,
2013-02-20 05:19:00,14.0,8.4,30.26,WNW,292,13.0,39.0,78,0.00,,,0.00,Wunderground v.1.15,2013-02-20 10:19:00,
2013-02-20 05:25:00,14.0,8.4,30.26,West,279,14.0,39.0,78,0.00,,,0.00,Wunderground v.1.15,2013-02-20 10:25:00,
2013-02-20 05:30:00,13.8,7.9,30.26,WNW,291,16.0,16.0,77,0.00,,,0.00,Wunderground v.1.15,2013-02-20 10:30:00,
2013-02-20 05:35:00,13.7,7.8,30.26,West,281,16.0,39.0,77,0.00,,,0.00,Wunderground v.1.15,2013-02-20 10:35:00,
2013-02-20 05:40:00,13.7,7.8,30.27,West,275,15.0,15.0,77,0.00,,,0.00,Wunderground v.1.15,2013-02-20 10:40:00,
2013-02-20 05:45:00,13.6,7.7,30.27,West,279,15.0,39.0,77,0.00,,,0.00,Wunderground v.1.15,2013-02-20 10:45:00,
2013-02-20 05:51:00,13.6,7.7,30.27,West,279,14.0,39.0,77,0.00,,,0.00,Wunderground v.1.15,2013-02-20 10:51:00,
2013-02-20 05:56:00,13.5,7.9,30.27,WNW,286,14.0,39.0,78,0.00,,,0.00,Wunderground v.1.15,2013-02-20 10:56:00,
2013-02-20 06:01:00,13.4,8.1,30.27,WNW,284,13.0,15.0,79,0.00,,,0.00,Wunderground v.1.15,2013-02-20 11:01:00,
2013-02-20 06:06:00,13.2,7.6,30.28,WNW,288,14.0,18.0,78,0.00,,,0.00,Wunderground v.1.15,2013-02-20 11:06:00,
2013-02-20 06:11:00,13.0,7.4,30.28,WNW,285,15.0,15.0,78,0.00,,,0.00,Wunderground v.1.15,2013-02-20 11:11:00,
2013-02-20 06:17:00,12.7,6.9,30.28,West,279,15.0,18.0,77,0.00,,,0.00,Wunderground v.1.15,2013-02-20 11:17:00,
2013-02-20 06:22:00,12.7,7.1,30.28,West,280,14.0,16.0,78,0.00,,,0.00,Wunderground v.1.15,2013-02-20 11:22:00,
2013-02-20 06:27:00,12.7,7.1,30.28,WNW,284,13.0,16.0,78,0.00,,,0.00,Wunderground v.1.15,2013-02-20 11:27:00,
2013-02-20 06:33:00,12.5,6.7,30.28,West,275,13.0,21.0,77,0.00,,,0.00,Wunderground v.1.15,2013-02-20 11:33:00,
2013-02-20 06:39:00,12.4,6.6,30.28,WNW,290,14.0,21.0,77,0.00,,,0.00,Wunderground v.1.15,2013-02-20 11:39:00,
2013-02-20 06:45:00,12.2,6.4,30.29,West,277,14.0,21.0,77,0.00,,,0.00,Wunderground v.1.15,2013-02-20 11:45:00,
2013-02-20 06:50:00,12.0,6.5,30.29,WNW,290,13.0,21.0,78,0.00,,,0.00,Wunderground v.1.15,2013-02-20 11:50:00,
2013-02-20 06:55:00,11.8,6.3,30.29,WNW,288,12.0,21.0,78,0.00,,,0.00,Wunderground v.1.15,2013-02-20 11:55:00,
2013-02-20 07:01:00,11.8,6.3,30.29,WNW,284,13.0,18.0,78,0.00,,,0.00,Wunderground v.1.15,2013-02-20 12:01:00,
2013-02-20 07:06:00,11.7,6.2,30.29,WNW,290,13.0,21.0,78,0.00,,,0.00,Wunderground v.1.15,2013-02-20 12:06:00,
2013-02-20 07:11:00,11.7,6.2,30.30,WNW,287,13.0,14.0,78,0.00,,,0.00,Wunderground v.1.15,2013-02-20 12:11:00,
2013-02-20 07:16:00,11.7,6.2,30.29,West,279,13.0,21.0,78,0.00,,,0.00,Wunderground v.1.15,2013-02-20 12:16:00,
2013-02-20 07:21:00,11.7,6.2,30.30,West,271,12.0,21.0,78,0.00,,,0.00,Wunderground v.1.15,2013-02-20 12:21:00,
2013-02-20 07:26:00,11.9,6.6,30.30,West,277,11.0,21.0,79,0.00,,,0.00,Wunderground v.1.15,2013-02-20 12:26:00,
2013-02-20 07:32:00,12.0,6.7,30.30,West,275,10.0,21.0,79,0.00,,,0.00,Wunderground v.1.15,2013-02-20 12:32:00,
2013-02-20 07:37:00,12.1,7.1,30.31,WNW,282,11.0,21.0,80,0.00,,,0.00,Wunderground v.1.15,2013-02-20 12:37:00,
2013-02-20 07:42:00,12.1,7.1,30.31,WNW,286,10.0,21.0,80,0.00,,,0.00,Wunderground v.1.15,2013-02-20 12:42:00,
2013-02-20 07:47:00,11.8,6.5,30.31,West,273,11.0,21.0,79,0.00,,,0.00,Wunderground v.1.15,2013-02-20 12:47:00,
2013-02-20 07:52:00,11.8,6.5,30.31,WNW,284,12.0,21.0,79,0.00,,,0.00,Wunderground v.1.15,2013-02-20 12:52:00,
2013-02-20 07:58:00,11.8,6.5,30.31,WNW,292,11.0,21.0,79,0.00,,,0.00,Wunderground v.1.15,2013-02-20 12:58:00,
2013-02-20 08:03:00,11.7,6.7,30.31,West,278,11.0,21.0,80,0.00,,,0.00,Wunderground v.1.15,2013-02-20 13:03:00,
2013-02-20 08:08:00,11.7,6.7,30.32,WNW,290,11.0,21.0,80,0.00,,,0.00,Wunderground v.1.15,2013-02-20 13:08:00,
2013-02-20 08:13:00,11.8,6.8,30.32,WNW,290,9.0,21.0,80,0.00,,,0.00,Wunderground v.1.15,2013-02-20 13:13:00,
2013-02-20 08:18:00,11.8,7.1,30.32,WNW,288,7.0,21.0,81,0.00,,,0.00,Wunderground v.1.15,2013-02-20 13:18:00,
2013-02-20 08:24:00,11.8,6.8,30.33,WNW,287,8.0,21.0,80,0.00,,,0.00,Wunderground v.1.15,2013-02-20 13:24:00,
2013-02-20 08:29:00,12.0,7.0,30.33,WNW,292,10.0,21.0,80,0.00,,,0.00,Wunderground v.1.15,2013-02-20 13:29:00,
2013-02-20 08:34:00,11.7,6.2,30.33,WNW,290,11.0,21.0,78,0.00,,,0.00,Wunderground v.1.15,2013-02-20 13:34:00,
2013-02-20 08:39:00,11.8,6.3,30.33,WNW,290,12.0,21.0,78,0.00,,,0.00,Wunderground v.1.15,2013-02-20 13:39:00,
2013-02-20 08:44:00,12.0,6.5,30.33,WNW,300,12.0,21.0,78,0.00,,,0.00,Wunderground v.1.15,2013-02-20 13:44:00,
2013-02-20 08:50:00,12.3,6.7,30.33,West,279,10.0,21.0,78,0.00,,,0.00,Wunderground v.1.15,2013-02-20 13:50:00,
2013-02-20 08:55:00,12.5,6.9,30.33,WNW,288,9.0,21.0,78,0.00,,,0.00,Wunderground v.1.15,2013-02-20 13:55:00,
2013-02-20 09:00:00,12.7,7.1,30.33,WNW,288,9.0,21.0,78,0.00,,,0.00,Wunderground v.1.15,2013-02-20 14:00:00,
2013-02-20 09:05:00,12.7,6.9,30.34,WNW,290,9.0,21.0,77,0.00,,,0.00,Wunderground v.1.15,2013-02-20 14:05:00,
2013-02-20 09:10:00,12.7,6.6,30.34,WNW,284,9.0,9.0,76,0.00,,,0.00,Wunderground v.1.15,2013-02-20 14:10:00,
2013-02-20 09:15:00,12.7,6.9,30.34,WNW,290,9.0,21.0,77,0.00,,,0.00,Wunderground v.1.15,2013-02-20 14:15:00,
2013-02-20 09:20:00,13.3,7.7,30.34,WNW,290,8.0,21.0,78,0.00,,,0.00,Wunderground v.1.15,2013-02-20 14:20:00,
2013-02-20 09:25:00,13.1,7.2,30.34,West,261,8.0,21.0,77,0.00,,,0.00,Wunderground v.1.15,2013-02-20 14:25:00,
2013-02-20 09:30:00,13.1,7.2,30.33,WNW,290,9.0,21.0,77,0.00,,,0.00,Wunderground v.1.15,2013-02-20 14:30:00,
2013-02-20 09:35:00,13.2,7.3,30.33,West,271,10.0,21.0,77,0.00,,,0.00,Wunderground v.1.15,2013-02-20 14:35:00,
2013-02-20 09:41:00,13.4,7.2,30.33,WNW,286,10.0,21.0,76,0.00,,,0.00,Wunderground v.1.15,2013-02-20 14:41:00,
2013-02-20 09:46:00,13.6,7.4,30.33,WNW,283,11.0,21.0,76,0.00,,,0.00,Wunderground v.1.15,2013-02-20 14:46:00,
2013-02-20 09:51:00,13.9,7.7,30.33,West,272,11.0,21.0,76,0.00,,,0.00,Wunderground v.1.15,2013-02-20 14:51:00,
2013-02-20 09:56:00,14.3,7.8,30.33,WNW,295,10.0,21.0,75,0.00,,,0.00,Wunderground v.1.15,2013-02-20 14:56:00,
2013-02-20 10:01:00,14.4,7.9,30.34,West,277,10.0,21.0,75,0.00,,,0.00,Wunderground v.1.15,2013-02-20 15:01:00,
2013-02-20 10:06:00,14.6,7.8,30.34,West,277,10.0,21.0,74,0.00,,,0.00,Wunderground v.1.15,2013-02-20 15:06:00,
2013-02-20 10:11:00,14.5,7.7,30.34,WNW,287,11.0,12.0,74,0.00,,,0.00,Wunderground v.1.15,2013-02-20 15:11:00,
2013-02-20 10:17:00,14.7,8.2,30.34,West,264,11.0,21.0,75,0.00,,,0.00,Wunderground v.1.15,2013-02-20 15:17:00,
2013-02-20 10:23:00,14.8,8.0,30.34,West,279,9.0,21.0,74,0.00,,,0.00,Wunderground v.1.15,2013-02-20 15:23:00,
2013-02-20 10:28:00,15.0,8.2,30.34,WNW,288,9.0,21.0,74,0.00,,,0.00,Wunderground v.1.15,2013-02-20 15:28:00,
2013-02-20 10:33:00,15.1,8.3,30.34,WNW,294,10.0,21.0,74,0.00,,,0.00,Wunderground v.1.15,2013-02-20 15:33:00,
2013-02-20 10:38:00,15.1,8.3,30.34,West,267,10.0,21.0,74,0.00,,,0.00,Wunderground v.1.15,2013-02-20 15:38:00,
2013-02-20 10:43:00,15.3,8.2,30.34,West,278,10.0,21.0,73,0.00,,,0.00,Wunderground v.1.15,2013-02-20 15:43:00,
2013-02-20 10:49:00,15.4,8.3,30.33,West,275,11.0,21.0,73,0.00,,,0.00,Wunderground v.1.15,2013-02-20 15:49:00,
2013-02-20 10:54:00,16.2,9.1,30.34,WNW,291,10.0,21.0,73,0.00,,,0.00,Wunderground v.1.15,2013-02-20 15:54:00,
2013-02-20 10:59:00,15.8,8.4,30.33,WNW,287,9.0,21.0,72,0.00,,,0.00,Wunderground v.1.15,2013-02-20 15:59:00,
2013-02-20 11:04:00,16.2,9.1,30.34,West,278,9.0,21.0,73,0.00,,,0.00,Wunderground v.1.15,2013-02-20 16:04:00,
2013-02-20 11:09:00,16.3,8.9,30.34,West,273,9.0,21.0,72,0.00,,,0.00,Wunderground v.1.15,2013-02-20 16:09:00,
2013-02-20 11:15:00,16.5,9.0,30.34,WNW,292,10.0,21.0,72,0.00,,,0.00,Wunderground v.1.15,2013-02-20 16:15:00,
2013-02-20 11:21:00,16.7,9.2,30.35,West,281,11.0,21.0,72,0.00,,,0.00,Wunderground v.1.15,2013-02-20 16:21:00,
2013-02-20 11:26:00,16.6,9.1,30.34,WNW,284,11.0,21.0,72,0.00,,,0.00,Wunderground v.1.15,2013-02-20 16:26:00,
2013-02-20 11:31:00,16.8,9.6,30.35,West,266,10.0,21.0,73,0.00,,,0.00,Wunderground v.1.15,2013-02-20 16:31:00,
2013-02-20 11:37:00,17.8,10.3,30.35,WNW,292,9.0,21.0,72,0.00,,,0.00,Wunderground v.1.15,2013-02-20 16:37:00,
2013-02-20 11:42:00,18.0,10.5,30.35,West,271,9.0,21.0,72,0.00,,,0.00,Wunderground v.1.15,2013-02-20 16:42:00,
2013-02-20 11:47:00,17.7,9.9,30.35,West,278,9.0,21.0,71,0.00,,,0.00,Wunderground v.1.15,2013-02-20 16:47:00,
2013-02-20 11:52:00,18.1,10.6,30.35,WNW,292,9.0,21.0,72,0.00,,,0.00,Wunderground v.1.15,2013-02-20 16:52:00,
2013-02-20 11:57:00,17.9,10.1,30.35,NW,309,11.0,21.0,71,0.00,,,0.00,Wunderground v.1.15,2013-02-20 16:57:00,
2013-02-20 12:02:00,17.7,10.2,30.35,WNW,282,12.0,21.0,72,0.00,,,0.00,Wunderground v.1.15,2013-02-20 17:02:00,
2013-02-20 12:08:00,17.9,10.1,30.35,WNW,292,10.0,21.0,71,0.00,,,0.00,Wunderground v.1.15,2013-02-20 17:08:00,
2013-02-20 12:13:00,18.3,10.8,30.36,West,277,9.0,21.0,72,0.00,,,0.00,Wunderground v.1.15,2013-02-20 17:13:00,
2013-02-20 12:18:00,19.0,11.5,30.35,West,277,9.0,21.0,72,0.00,,,0.00,Wunderground v.1.15,2013-02-20 17:18:00,
2013-02-20 12:23:00,18.4,10.6,30.36,West,261,10.0,21.0,71,0.00,,,0.00,Wunderground v.1.15,2013-02-20 17:23:00,
2013-02-20 12:28:00,18.8,10.9,30.35,WNW,284,10.0,21.0,71,0.00,,,0.00,Wunderground v.1.15,2013-02-20 17:28:00,
2013-02-20 12:34:00,18.9,11.4,30.36,West,280,9.0,21.0,72,0.00,,,0.00,Wunderground v.1.15,2013-02-20 17:34:00,
2013-02-20 12:39:00,19.1,11.2,30.35,West,274,10.0,21.0,71,0.00,,,0.00,Wunderground v.1.15,2013-02-20 17:39:00,
2013-02-20 12:44:00,19.0,11.1,30.35,West,280,11.0,21.0,71,0.00,,,0.00,Wunderground v.1.15,2013-02-20 17:44:00,
2013-02-20 12:49:00,19.1,10.9,30.34,West,260,11.0,21.0,70,0.00,,,0.00,Wunderground v.1.15,2013-02-20 17:49:00,
2013-02-20 12:54:00,19.4,11.2,30.34,WNW,285,10.0,21.0,70,0.00,,,0.00,Wunderground v.1.15,2013-02-20 17:54:00,
2013-02-20 13:00:00,19.3,11.1,30.34,West,274,11.0,11.0,70,0.00,,,0.00,Wunderground v.1.15,2013-02-20 18:00:00,
2013-02-20 13:05:00,19.3,10.8,30.34,West,273,11.0,21.0,69,0.00,,,0.00,Wunderground v.1.15,2013-02-20 18:05:00,
2013-02-20 13:10:00,19.7,11.2,30.34,West,265,11.0,11.0,69,0.00,,,0.00,Wunderground v.1.15,2013-02-20 18:10:00,
2013-02-20 13:15:00,20.0,11.8,30.34,WNW,282,11.0,21.0,70,0.00,,,0.00,Wunderground v.1.15,2013-02-20 18:15:00,
2013-02-20 13:20:00,20.2,12.0,30.34,West,259,9.0,21.0,70,0.00,,,0.00,Wunderground v.1.15,2013-02-20 18:20:00,
2013-02-20 13:26:00,20.3,12.1,30.34,West,281,10.0,21.0,70,0.00,,,0.00,Wunderground v.1.15,2013-02-20 18:26:00,
2013-02-20 13:31:00,20.3,11.7,30.34,West,262,11.0,21.0,69,0.00,,,0.00,Wunderground v.1.15,2013-02-20 18:31:00,
2013-02-20 13:36:00,21.1,13.2,30.34,West,272,12.0,21.0,71,0.00,,,0.00,Wunderground v.1.15,2013-02-20 18:36:00,
2013-02-20 13:41:00,20.7,12.5,30.34,West,273,11.0,21.0,70,0.00,,,0.00,Wunderground v.1.15,2013-02-20 18:41:00,
2013-02-20 13:46:00,20.7,12.1,30.34,WNW,290,11.0,21.0,69,0.00,,,0.00,Wunderground v.1.15,2013-02-20 18:46:00,
2013-02-20 13:52:00,20.7,12.8,30.34,West,271,12.0,21.0,71,0.00,,,0.00,Wunderground v.1.15,2013-02-20 18:52:00,
2013-02-20 13:57:00,21.0,13.1,30.34,West,277,11.0,21.0,71,0.00,,,0.00,Wunderground v.1.15,2013-02-20 18:57:00,
2013-02-20 14:02:00,21.7,13.7,30.34,WNW,286,12.0,21.0,71,0.00,,,0.00,Wunderground v.1.15,2013-02-20 19:02:00,
2013-02-20 14:07:00,21.6,13.3,30.34,WNW,288,12.0,21.0,70,0.00,,,0.00,Wunderground v.1.15,2013-02-20 19:07:00,
2013-02-20 14:12:00,21.7,13.7,30.34,WNW,283,12.0,21.0,71,0.00,,,0.00,Wunderground v.1.15,2013-02-20 19:12:00,
2013-02-20 14:18:00,21.3,13.0,30.34,WNW,287,12.0,21.0,70,0.00,,,0.00,Wunderground v.1.15,2013-02-20 19:18:00,
2013-02-20 14:23:00,22.2,14.5,30.34,WNW,293,12.0,21.0,72,0.00,,,0.00,Wunderground v.1.15,2013-02-20 19:23:00,
2013-02-20 14:28:00,21.7,13.4,30.34,WNW,290,12.0,21.0,70,0.00,,,0.00,Wunderground v.1.15,2013-02-20 19:28:00,
2013-02-20 14:33:00,21.7,14.1,30.34,WNW,284,13.0,21.0,72,0.00,,,0.00,Wunderground v.1.15,2013-02-20 19:33:00,
2013-02-20 14:38:00,21.6,13.6,30.34,NW,304,12.0,21.0,71,0.00,,,0.00,Wunderground v.1.15,2013-02-20 19:38:00,
2013-02-20 14:44:00,21.9,14.6,30.35,WNW,292,12.0,21.0,73,0.00,,,0.00,Wunderground v.1.15,2013-02-20 19:44:00,
2013-02-20 14:49:00,22.1,14.4,30.35,WNW,284,13.0,21.0,72,0.00,,,0.00,Wunderground v.1.15,2013-02-20 19:49:00,
2013-02-20 14:54:00,22.1,14.4,30.35,West,277,13.0,21.0,72,0.00,,,0.00,Wunderground v.1.15,2013-02-20 19:54:00,
2013-02-20 14:59:00,22.6,14.6,30.34,West,279,13.0,21.0,71,0.00,,,0.00,Wunderground v.1.15,2013-02-20 19:59:00,
2013-02-20 15:04:00,22.5,14.5,30.34,WNW,293,13.0,21.0,71,0.00,,,0.00,Wunderground v.1.15,2013-02-20 20:04:00,
2013-02-20 15:10:00,22.2,14.2,30.34,West,276,12.0,21.0,71,0.00,,,0.00,Wunderground v.1.15,2013-02-20 20:10:00,
2013-02-20 15:15:00,22.4,15.1,30.34,West,277,12.0,21.0,73,0.00,,,0.00,Wunderground v.1.15,2013-02-20 20:15:00,
2013-02-20 15:20:00,22.7,15.0,30.34,West,270,12.0,12.0,72,0.00,,,0.00,Wunderground v.1.15,2013-02-20 20:20:00,
2013-02-20 15:25:00,22.4,14.7,30.35,NW,306,12.0,21.0,72,0.00,,,0.00,Wunderground v.1.15,2013-02-20 20:25:00,
2013-02-20 15:30:00,22.7,15.7,30.35,WNW,291,12.0,12.0,74,0.00,,,0.00,Wunderground v.1.15,2013-02-20 20:30:00,
2013-02-20 15:35:00,22.7,15.3,30.35,WNW,288,11.0,21.0,73,0.00,,,0.00,Wunderground v.1.15,2013-02-20 20:35:00,
2013-02-20 15:40:00,22.4,15.4,30.35,WNW,294,12.0,21.0,74,0.00,,,0.00,Wunderground v.1.15,2013-02-20 20:40:00,
2013-02-20 15:45:00,22.4,15.4,30.34,West,277,13.0,21.0,74,0.00,,,0.00,Wunderground v.1.15,2013-02-20 20:45:00,
2013-02-20 15:50:00,22.1,15.1,30.34,WNW,285,14.0,21.0,74,0.00,,,0.00,Wunderground v.1.15,2013-02-20 20:50:00,
2013-02-20 15:55:00,22.2,15.5,30.34,WNW,288,14.0,21.0,75,0.00,,,0.00,Wunderground v.1.15,2013-02-20 20:55:00,
2013-02-20 16:00:00,22.1,15.1,30.35,WNW,283,13.0,13.0,74,0.00,,,0.00,Wunderground v.1.15,2013-02-20 21:00:00,
2013-02-20 16:05:00,22.1,15.1,30.35,WNW,286,12.0,21.0,74,0.00,,,0.00,Wunderground v.1.15,2013-02-20 21:05:00,
2013-02-20 16:11:00,21.8,14.8,30.35,WNW,283,14.0,21.0,74,0.00,,,0.00,Wunderground v.1.15,2013-02-20 21:11:00,
2013-02-20 16:16:00,22.0,15.3,30.35,NW,315,12.0,21.0,75,0.00,,,0.00,Wunderground v.1.15,2013-02-20 21:16:00,
2013-02-20 16:21:00,21.9,14.9,30.35,West,269,11.0,21.0,74,0.00,,,0.00,Wunderground v.1.15,2013-02-20 21:21:00,
2013-02-20 16:26:00,21.8,15.1,30.35,WNW,285,12.0,21.0,75,0.00,,,0.00,Wunderground v.1.15,2013-02-20 21:26:00,
2013-02-20 16:31:00,21.7,15.0,30.35,WNW,283,13.0,21.0,75,0.00,,,0.00,Wunderground v.1.15,2013-02-20 21:31:00,
2013-02-20 16:37:00,21.5,14.8,30.35,WNW,284,15.0,22.0,75,0.00,,,0.00,Wunderground v.1.15,2013-02-20 21:37:00,
2013-02-20 16:42:00,21.6,14.9,30.35,West,277,14.0,21.0,75,0.00,,,0.00,Wunderground v.1.15,2013-02-20 21:42:00,
2013-02-20 16:47:00,21.6,14.9,30.35,WNW,295,11.0,21.0,75,0.00,,,0.00,Wunderground v.1.15,2013-02-20 21:47:00,
2013-02-20 16:52:00,21.7,15.3,30.35,West,281,9.0,21.0,76,0.00,,,0.00,Wunderground v.1.15,2013-02-20 21:52:00,
2013-02-20 16:57:00,21.8,15.4,30.34,WNW,294,9.0,21.0,76,0.00,,,0.00,Wunderground v.1.15,2013-02-20 21:57:00,
2013-02-20 17:03:00,21.8,15.4,30.34,WNW,299,8.0,21.0,76,0.00,,,0.00,Wunderground v.1.15,2013-02-20 22:03:00,
2013-02-20 17:08:00,21.6,15.2,30.34,WNW,290,8.0,21.0,76,0.00,,,0.00,Wunderground v.1.15,2013-02-20 22:08:00,
2013-02-20 17:13:00,21.5,15.1,30.34,NW,317,9.0,21.0,76,0.00,,,0.00,Wunderground v.1.15,2013-02-20 22:13:00,
2013-02-20 17:18:00,21.5,15.1,30.34,WNW,284,9.0,21.0,76,0.00,,,0.00,Wunderground v.1.15,2013-02-20 22:18:00,
2013-02-20 17:23:00,21.5,15.1,30.34,WNW,288,8.0,21.0,76,0.00,,,0.00,Wunderground v.1.15,2013-02-20 22:23:00,
2013-02-20 17:28:00,21.7,15.3,30.35,NNW,338,9.0,21.0,76,0.00,,,0.00,Wunderground v.1.15,2013-02-20 22:28:00,
2013-02-20 17:33:00,21.5,14.8,30.35,NW,304,9.0,21.0,75,0.00,,,0.00,Wunderground v.1.15,2013-02-20 22:33:00,
2013-02-20 17:38:00,21.5,15.1,30.35,WNW,295,9.0,21.0,76,0.00,,,0.00,Wunderground v.1.15,2013-02-20 22:38:00,
2013-02-20 17:43:00,21.5,15.1,30.35,NW,315,6.0,21.0,76,0.00,,,0.00,Wunderground v.1.15,2013-02-20 22:43:00,
2013-02-20 17:48:00,21.6,15.2,30.35,WNW,286,8.0,21.0,76,0.00,,,0.00,Wunderground v.1.15,2013-02-20 22:48:00,
2013-02-20 17:53:00,21.6,15.2,30.35,WNW,283,9.0,21.0,76,0.00,,,0.00,Wunderground v.1.15,2013-02-20 22:53:00,
2013-02-20 17:59:00,21.3,14.9,30.36,NW,310,10.0,21.0,76,0.00,,,0.00,Wunderground v.1.15,2013-02-20 22:59:00,
2013-02-20 18:04:00,21.5,15.1,30.36,WNW,291,8.0,21.0,76,0.00,,,0.00,Wunderground v.1.15,2013-02-20 23:04:00,
2013-02-20 18:09:00,21.5,15.1,30.36,WNW,294,8.0,21.0,76,0.00,,,0.00,Wunderground v.1.15,2013-02-20 23:09:00,
2013-02-20 18:14:00,21.7,15.6,30.36,WNW,301,7.0,21.0,77,0.00,,,0.00,Wunderground v.1.15,2013-02-20 23:14:00,
2013-02-20 18:19:00,21.6,15.2,30.36,West,280,7.0,21.0,76,0.00,,,0.00,Wunderground v.1.15,2013-02-20 23:19:00,
2013-02-20 18:25:00,21.6,15.2,30.36,WNW,290,8.0,21.0,76,0.00,,,0.00,Wunderground v.1.15,2013-02-20 23:25:00,
2013-02-20 18:30:00,21.6,15.5,30.36,NW,313,7.0,7.0,77,0.00,,,0.00,Wunderground v.1.15,2013-02-20 23:30:00,
2013-02-20 18:35:00,21.6,15.2,30.36,NNW,334,7.0,21.0,76,0.00,,,0.00,Wunderground v.1.15,2013-02-20 23:35:00,
2013-02-20 18:40:00,21.6,15.5,30.36,NNW,333,7.0,21.0,77,0.00,,,0.00,Wunderground v.1.15,2013-02-20 23:40:00,
2013-02-20 18:45:00,21.6,15.2,30.37,NNW,333,6.0,21.0,76,0.00,,,0.00,Wunderground v.1.15,2013-02-20 23:45:00,
2013-02-20 18:51:00,21.6,15.2,30.37,NW,313,6.0,7.0,76,0.00,,,0.00,Wunderground v.1.15,2013-02-20 23:51:00,
2013-02-20 18:56:00,21.7,15.3,30.37,NW,314,6.0,21.0,76,0.00,,,0.00,Wunderground v.1.15,2013-02-20 23:56:00,
2013-02-20 19:01:00,21.8,15.7,30.37,North,355,7.0,21.0,77,0.00,,,0.00,Wunderground v.1.15,2013-02-21 00:01:00,
2013-02-20 19:06:00,21.8,15.4,30.37,NW,326,8.0,21.0,76,0.00,,,0.00,Wunderground v.1.15,2013-02-21 00:06:00,
2013-02-20 19:11:00,21.8,15.4,30.37,NNW,337,7.0,21.0,76,0.00,,,0.00,Wunderground v.1.15,2013-02-21 00:11:00,
2013-02-20 19:16:00,21.8,15.4,30.37,North,355,8.0,21.0,76,0.00,,,0.00,Wunderground v.1.15,2013-02-21 00:16:00,
2013-02-20 19:21:00,21.9,15.8,30.37,NNW,345,9.0,21.0,77,0.00,,,0.00,Wunderground v.1.15,2013-02-21 00:21:00,
2013-02-20 19:27:00,21.8,15.4,30.37,NNW,336,8.0,21.0,76,0.00,,,0.00,Wunderground v.1.15,2013-02-21 00:27:00,
2013-02-20 19:32:00,21.9,15.5,30.37,NW,311,8.0,21.0,76,0.00,,,0.00,Wunderground v.1.15,2013-02-21 00:32:00,
2013-02-20 19:37:00,21.9,15.5,30.37,NNW,336,7.0,21.0,76,0.00,,,0.00,Wunderground v.1.15,2013-02-21 00:37:00,
2013-02-20 19:42:00,21.9,15.8,30.37,NNW,338,7.0,21.0,77,0.00,,,0.00,Wunderground v.1.15,2013-02-21 00:42:00,
2013-02-20 19:47:00,21.8,15.7,30.37,NNW,342,8.0,21.0,77,0.00,,,0.00,Wunderground v.1.15,2013-02-21 00:47:00,
2013-02-20 19:53:00,21.7,15.3,30.38,NNW,338,7.0,21.0,76,0.00,,,0.00,Wunderground v.1.15,2013-02-21 00:53:00,
2013-02-20 19:58:00,21.7,15.6,30.38,NNW,334,6.0,21.0,77,0.00,,,0.00,Wunderground v.1.15,2013-02-21 00:58:00,
2013-02-20 20:03:00,21.6,15.2,30.38,NW,326,7.0,21.0,76,0.00,,,0.00,Wunderground v.1.15,2013-02-21 01:03:00,
2013-02-20 20:08:00,21.5,15.1,30.37,NW,325,6.0,21.0,76,0.00,,,0.00,Wunderground v.1.15,2013-02-21 01:08:00,
2013-02-20 20:14:00,21.4,15.0,30.37,NW,325,4.0,21.0,76,0.00,,,0.00,Wunderground v.1.15,2013-02-21 01:14:00,
2013-02-20 20:19:00,21.2,14.8,30.37,NW,325,5.0,21.0,76,0.00,,,0.00,Wunderground v.1.15,2013-02-21 01:19:00,
2013-02-20 20:24:00,21.1,15.0,30.37,NW,325,5.0,21.0,77,0.00,,,0.00,Wunderground v.1.15,2013-02-21 01:24:00,
2013-02-20 20:30:00,21.1,15.3,30.37,NW,325,5.0,5.0,78,0.00,,,0.00,Wunderground v.1.15,2013-02-21 01:30:00,
2013-02-20 20:35:00,20.9,15.1,30.37,NW,325,4.0,21.0,78,0.00,,,0.00,Wunderground v.1.15,2013-02-21 01:35:00,
2013-02-20 20:40:00,20.7,15.2,30.37,NW,325,4.0,21.0,79,0.00,,,0.00,Wunderground v.1.15,2013-02-21 01:40:00,
2013-02-20 20:45:00,20.6,15.1,30.37,NW,325,5.0,21.0,79,0.00,,,0.00,Wunderground v.1.15,2013-02-21 01:45:00,
2013-02-20 20:50:00,20.6,15.1,30.37,NW,325,5.0,5.0,79,0.00,,,0.00,Wunderground v.1.15,2013-02-21 01:50:00,
2013-02-20 20:55:00,20.6,15.1,30.36,North,350,5.0,21.0,79,0.00,,,0.00,Wunderground v.1.15,2013-02-21 01:55:00,
2013-02-20 21:01:00,20.7,15.2,30.37,North,360,7.0,21.0,79,0.00,,,0.00,Wunderground v.1.15,2013-02-21 02:01:00,
2013-02-20 21:06:00,20.7,14.9,30.36,North,349,8.0,21.0,78,0.00,,,0.00,Wunderground v.1.15,2013-02-21 02:06:00,
2013-02-20 21:11:00,20.7,14.9,30.37,North,360,9.0,21.0,78,0.00,,,0.00,Wunderground v.1.15,2013-02-21 02:11:00,
2013-02-20 21:17:00,20.6,14.8,30.37,North,355,8.0,21.0,78,0.00,,,0.00,Wunderground v.1.15,2013-02-21 02:17:00,
2013-02-20 21:22:00,20.6,14.8,30.37,North,355,7.0,21.0,78,0.00,,,0.00,Wunderground v.1.15,2013-02-21 02:22:00,
2013-02-20 21:27:00,20.5,14.7,30.37,North,355,6.0,21.0,78,0.00,,,0.00,Wunderground v.1.15,2013-02-21 02:27:00,
2013-02-20 21:32:00,20.4,14.6,30.37,North,355,6.0,21.0,78,0.00,,,0.00,Wunderground v.1.15,2013-02-21 02:32:00,
2013-02-20 21:37:00,20.4,14.6,30.37,North,355,6.0,21.0,78,0.00,,,0.00,Wunderground v.1.15,2013-02-21 02:37:00,
2013-02-20 21:42:00,20.3,14.5,30.38,North,355,6.0,21.0,78,0.00,,,0.00,Wunderground v.1.15,2013-02-21 02:42:00,
2013-02-20 21:47:00,20.2,14.4,30.37,North,355,5.0,21.0,78,0.00,,,0.00,Wunderground v.1.15,2013-02-21 02:47:00,
2013-02-20 21:52:00,20.1,14.3,30.37,North,355,6.0,21.0,78,0.00,,,0.00,Wunderground v.1.15,2013-02-21 02:52:00,
2013-02-20 21:57:00,20.1,14.3,30.37,North,355,6.0,21.0,78,0.00,,,0.00,Wunderground v.1.15,2013-02-21 02:57:00,
2013-02-20 22:02:00,20.0,14.2,30.36,North,355,6.0,21.0,78,0.00,,,0.00,Wunderground v.1.15,2013-02-21 03:02:00,
2013-02-20 22:07:00,20.0,14.2,30.36,North,360,7.0,21.0,78,0.00,,,0.00,Wunderground v.1.15,2013-02-21 03:07:00,
2013-02-20 22:13:00,19.9,14.4,30.35,North,351,8.0,21.0,79,0.00,,,0.00,Wunderground v.1.15,2013-02-21 03:13:00,
2013-02-20 22:18:00,19.8,14.3,30.36,North,355,7.0,21.0,79,0.00,,,0.00,Wunderground v.1.15,2013-02-21 03:18:00,
2013-02-20 22:23:00,19.8,14.3,30.36,North,355,5.0,21.0,79,0.00,,,0.00,Wunderground v.1.15,2013-02-21 03:23:00,
2013-02-20 22:28:00,19.7,14.5,30.36,North,355,5.0,21.0,80,0.00,,,0.00,Wunderground v.1.15,2013-02-21 03:28:00,
2013-02-20 22:33:00,19.7,14.5,30.36,North,355,5.0,21.0,80,0.00,,,0.00,Wunderground v.1.15,2013-02-21 03:33:00,
2013-02-20 22:39:00,19.7,14.5,30.36,North,355,5.0,21.0,80,0.00,,,0.00,Wunderground v.1.15,2013-02-21 03:39:00,
2013-02-20 22:44:00,19.7,14.5,30.36,North,355,4.0,21.0,80,0.00,,,0.00,Wunderground v.1.15,2013-02-21 03:44:00,
2013-02-20 22:49:00,19.6,14.7,30.37,North,355,4.0,21.0,81,0.00,,,0.00,Wunderground v.1.15,2013-02-21 03:49:00,
2013-02-20 22:54:00,19.5,14.6,30.37,North,355,3.0,21.0,81,0.00,,,0.00,Wunderground v.1.15,2013-02-21 03:54:00,
2013-02-20 22:59:00,19.3,14.4,30.37,North,355,2.0,21.0,81,0.00,,,0.00,Wunderground v.1.15,2013-02-21 03:59:00,
2013-02-20 23:05:00,19.2,14.3,30.36,North,355,2.0,21.0,81,0.00,,,0.00,Wunderground v.1.15,2013-02-21 04:05:00,
2013-02-20 23:10:00,19.0,14.1,30.36,North,355,3.0,3.0,81,0.00,,,0.00,Wunderground v.1.15,2013-02-21 04:10:00,
2013-02-20 23:15:00,18.9,14.3,30.36,North,355,3.0,21.0,82,0.00,,,0.00,Wunderground v.1.15,2013-02-21 04:15:00,
2013-02-20 23:20:00,18.9,14.3,30.36,North,355,3.0,3.0,82,0.00,,,0.00,Wunderground v.1.15,2013-02-21 04:20:00,
2013-02-20 23:25:00,18.8,14.2,30.36,North,355,2.0,21.0,82,0.00,,,0.00,Wunderground v.1.15,2013-02-21 04:25:00,
2013-02-20 23:30:00,18.7,14.1,30.37,North,355,2.0,2.0,82,0.00,,,0.00,Wunderground v.1.15,2013-02-21 04:30:00,
2013-02-20 23:35:00,18.7,14.1,30.36,North,355,1.0,21.0,82,0.00,,,0.00,Wunderground v.1.15,2013-02-21 04:35:00,
2013-02-20 23:40:00,18.7,14.1,30.36,North,355,4.0,21.0,82,0.00,,,0.00,Wunderground v.1.15,2013-02-21 04:40:00,
2013-02-20 23:45:00,18.7,14.1,30.36,North,355,2.0,21.0,82,0.00,,,0.00,Wunderground v.1.15,2013-02-21 04:45:00,
2013-02-20 23:50:00,18.8,14.5,30.36,North,355,2.0,21.0,83,0.00,,,0.00,Wunderground v.1.15,2013-02-21 04:50:00,
2013-02-20 23:55:00,18.8,14.5,30.36,North,355,2.0,21.0,83,0.00,,,0.00,Wunderground v.1.15,2013-02-21 04:55:00,